Location: Bourg-d�Oueil
(42.8588°N, 0.4991°E)
Time: 01:28:27
(UTC+00:00)

BlueWalker 3 - Visible Passes

Search period start: 29 November 2022 00:00
Search period end: 09 December 2022 00:00
Orbit: 500 x 519 km, 53.2° (Epoch: 28 November)

Date Brightness Start Highest point End Pass type
(mag) Time Alt. Az. Time Alt. Az. Time Alt. Az.
29 Nov 3.1 16:52:10 10° W 16:55:49 36° NNW 16:59:27 10° NE visible
29 Nov 4.0 18:32:34 10° NW 18:34:58 18° NNW 18:34:58 18° NNW visible
30 Nov 3.9 18:14:16 10° NW 18:17:01 18° N 18:17:19 18° N visible
01 Dec 3.8 17:55:57 10° NW 17:58:41 18° N 17:59:39 17° NNE visible
02 Dec 3.9 17:37:37 10° NW 17:40:22 18° N 17:42:00 14° NNE visible
02 Dec 5.0 19:16:46 10° NW 19:16:49 10° NW 19:16:49 10° NW visible
03 Dec 3.9 17:19:17 10° NW 17:22:01 18° N 17:24:22 12° NE visible
03 Dec 4.5 18:58:23 10° NW 18:59:11 14° NNW 18:59:11 14° NNW visible
04 Dec 3.8 17:00:57 10° NW 17:03:40 18° N 17:06:23 10° NE visible
04 Dec 4.0 18:40:00 10° NW 18:41:35 19° NNW 18:41:35 19° NNW visible
05 Dec 3.5 18:21:36 10° NW 18:24:01 24° N 18:24:01 24° N visible
06 Dec 3.1 18:03:11 10° NW 18:06:32 28° NNE 18:06:32 28° NNE visible
07 Dec 3.0 17:44:45 10° NW 17:48:14 29° NNE 17:49:08 26° NE visible
07 Dec 4.8 19:23:16 10° WNW 19:23:59 15° WNW 19:23:59 15° WNW visible
08 Dec 2.9 17:26:20 10° NW 17:29:50 30° NNE 17:31:51 19° ENE visible
08 Dec 4.0 19:04:52 10° WNW 19:06:43 26° WNW 19:06:43 26° WNW visible
